Showing default

ICEYE-X49, 62384

Orbit data source: Space-Track

ICEYE-X49, 62384 is a payload satellite owned by ICEYE (FI) in LEO that was launched on Sat, 21 Dec 2024 UTC via an FALCON 9 launch vehicle from the Air Force Western Test Range (AFWTR). Payload-class satellites include a variety of spacecraft equipped with specific instruments for various scientific and technological missions. These include communications satellites like Starlink; space stations such as the ISS; scientific satellites like the Hubble; Earth observation satellites from companies like Planet Labs, Umbra, and HawkEye 360; GPS; miniature CubeSats for education and research; and military/defense satellites.

Loading next visibility...
Identifier
62384, 2024-247H
Orbit
LEO
Country
Flag of FIFI / FIN
Related business
Manufacturer
ICEYE
Mission
Operational Commercial Radar Imaging
Bus & Motor
ICEYE, Unknown motor
Mass
80 kg wet, 80 kg dry
Launch date (UTC)
2024-12-21 (1 year ago)
Launch vehicle
FALCON 9
Launch site
Air Force Western Test Range (AFWTR)
Object type
Payload
Rocket body
Debris
Shape & HBR
Box + 1 Pan, 0.8 m
Radar Cross Section
0.776 m², Medium (>0.1 m² and < 1m²)

Expand to show TLE details & history
Last TLE update: 16 hours ago

TLE from 16 hours ago
0 ICEYE-X49
1 62384U 24247H   26023.44028460  .00010603  00000-0  63321-3 0  9991
2 62384  44.9983  49.2804 0002893 294.5419  65.5156 15.11299203 60260
Epoch: 2026-01-23T10:34Z
TLE epoch observation values (Epoch: 2026-01-23T10:34:00.589Z)
Latitude
-0.00002°
Longitude
127.99886°
Altitude
531.407 km
Speed
7.599 km/s
True Right ascension
03h 17m 07s
True Declination
0° 00' 00"
Sunlit
Object was in daylight at epoch
Visualization orbit readout
Latitude
Unknown
Longitude
Unknown
Altitude
Unknown
Speed
Unknown
Apparent Right ascension
Unknown
Apparent Declination
Unknown
Sunlit
N/A
Visualization observer readout
Local Sidereal Time
04:06:24
Azimuth
Unknown
Elevation
Unknown
Doppler factor
Unknown
Orbital elements
Apogee altitude
535.835 km
Perigee altitude
531.835 km
Semi-major axis
6,911.972 km
Eccentricity
0.00029
Inclination
44.9983°
RAAN
49.2804°
Arg. of periapsis
294.5419°
True anomaly
65.54577°
Mean anomaly
65.5156°
Eccentric anomaly
65.53069°
Mean motion
3.77694 °/min
Orbital period
95.32 mins
BSTAR
0.00063321
Loading maneuver chart data...
Computing Atmospheric mass density...
Loading historical data...
Loading historical data...
Loading historical data...
Loading historical data...
Loading historical data...
Loading historical data...
Loading historical data...

Documentation

Showing up to 5 results
|